RH
47 56 56 35 35 29 28 30 52 71 81 92 93 98 96 90 96 86 75 65 62 50 28 24 24 25 25 24 22 19 22 34 46 50 62 70 61 57 62 65 60 55 56
43 40 65 54 39 28 27 40 69 69 92 93 95 97 97 98 95 84 82 74 64 47 29 27 29 28 26 26 24 18 21 21 34 52 51 53 70 62 49 40 49 52 54
38 47 66 56 52 47 36 80 94 98 92 95 97 97 96 95 95 95 92 77 68 41 32 33 32 31 31 28 22 21 19 19 21 35 47 49 53 63 38 53 51 42 39
44 46 63 58 67 70 69 94 85 90 94 95 96 97 95 96 97 96 93 75 58 44 38 36 36 36 33 32 35 37 34 27 21 20 21 22 24 29 31 28 27 27 28
48 53 60 58 84 96 93 96 97 96 94 97 96 96 96 98 95 94 85 68 55 46 39 38 39 44 47 45 40 36 35 35 32 27 24 22 21 22 23 23 23 24 24
62 53 52 62 86 96 72 95 96 98 97 95 98 94 94 92 89 84 70 59 52 47 43 47 46 43 37 32 28 23 21 22 29 29 30 28 29 27 25 23 23 22 22
91 75 74 73 82 96 96 98 96 96 97 96 98 89 97 94 86 68 61 55 53 48 45 38 31 23 17 13 9 8 6 6 6 6 5 5 6 7 6 7 5 4 4
86 93 88 87 97 97 96 93 96 94 95 97 97 97 95 84 70 63 56 51 41 28 19 12 9 8 7 6 4 3 2 2 2 2 3 3 3 3 4 4 4 4 4
75 86 93 94 97 98 95 95 96 95 95 89 93 86 88 63 51 44 37 25 13 9 8 5 3 2 2 2 2 2 3 3 4 5 4 4 4 4 4 4 4 4 4
92 88 96 95 96 95 89 98 85 52 35 59 63 85 39 13 12 11 10 10 8 4 2 2 2 2 3 3 3 5 6 5 5 5 5 6 6 6 5 5 5 5 5
79 99 89 90 95 96 94 82 29 15 11 11 11 11 12 12 11 10 6 4 2 2 2 4 6 6 6 5 5 5 5 5 7 7 7 6 6 6 6 5 5 4 4
40 58 57 37 40 50 48 45 28 18 16 17 18 15 9 6 4 3 2 2 3 4 5 6 6 6 6 5 5 5 5 5 8 8 7 6 6 6 6 6 5 4 3
10 14 46 20 24 26 32 29 27 24 21 17 11 4 3 2 2 2 3 4 5 7 8 9 8 6 6 6 6 8 8 8 7 7 7 7 7 8 7 7 6 4 4
5 5 6 8 7 10 9 10 9 8 6 4 2 2 2 2 4 5 7 8 9 9 9 9 7 7 8 9 9 8 8 8 8 8 8 8 8 8 8 7 5 6 4
4 4 4 5 5 4 4 4 4 4 2 2 2 2 3 5 6 9 10 10 10 10 9 9 10 8 8 9 8 8 8 8 7 7 7 8 8 9 9 9 8 6 5
4 3 3 3 3 3 2 2 2 2 2 2 2 3 5 7 8 9 9 10 10 11 10 11 11 12 10 9 9 9 8 8 8 8 9 10 10 10 10 10 10 9 8
5 4 4 3 3 3 4 3 3 3 3 3 5 6 7 8 8 9 11 15 16 16 13 11 11 10 9 10 9 8 8 8 9 12 14 14 14 14 14 13 12 11 10
9 11 8 5 4 4 4 4 4 4 5 5 6 6 6 6 7 8 11 16 17 16 16 13 13 14 14 12 13 13 15 17 17 17 18 18 19 20 19 18 16 15 13
4 5 5 8 11 11 10 8 7 6 4 4 4 4 5 5 5 6 8 12 16 18 18 19 18 18 18 17 17 18 19 19 18 18 19 20 21 21 20 19 19 18 16
4 4 4 4 4 4 4 4 4 5 7 9 8 5 5 4 4 5 6 9 14 17 20 21 21 22 22 21 23 24 22 22 25 25 24 24 24 24 23 22 21 19 18
6 5 4 4 4 4 4 4 4 4 4 4 5 7 11 8 6 5 6 8 12 18 21 23 24 22 20 22 26 26 26 26 27 28 28 26 25 24 24 23 22 20 19
12 6 5 6 5 5 5 4 4 4 5 6 7 7 6 6 12 10 8 8 10 14 18 21 22 21 20 21 28 30 30 30 29 29 29 29 29 28 29 30 30 30 30
26 18 7 6 6 5 4 4 4 6 6 8 11 11 9 8 5 7 12 14 12 13 16 17 18 17 16 20 33 34 34 35 34 36 36 39 44 46 47 47 46 43 41
20 21 23 16 6 6 5 4 4 5 8 8 9 10 13 12 11 9 6 7 12 16 17 17 17 15 15 30 38 39 40 37 37 41 49 53 55 53 55 57 54 50 47
19 19 18 20 21 20 13 7 7 6 6 7 9 11 12 13 14 13 11 8 8 10 12 13 14 15 23 41 45 46 45 42 43 45 52 58 56 61 61 62 59 55 48
52 31 18 18 16 16 20 21 15 12 10 10 12 13 13 14 16 16 15 12 10 12 14 16 18 20 36 49 50 52 51 51 51 51 49 55 56 65 62 62 57 51 46
Wind_Speed
21 24 25 25 24 23 24 24 22 21 21 16 20 19 23 16 22 19 20 18 15 11 9 9 8 6 4 3 4 3 3 4 5 5 5 5 6 5 5 4 4 3 3
18 22 22 21 23 26 27 20 21 14 18 19 18 22 29 31 22 24 21 18 16 13 12 10 8 8 7 6 7 5 4 3 4 4 5 4 4 6 6 6 5 6 6
17 21 22 20 24 27 24 20 20 21 24 19 16 21 24 22 25 25 22 18 16 14 12 11 10 10 9 8 7 4 3 4 4 6 6 5 4 4 4 4 6 5 5
20 22 20 22 21 21 18 26 28 24 30 22 28 30 24 24 26 22 19 16 16 14 13 12 12 11 10 9 8 7 6 6 6 7 7 7 6 5 4 3 3 3 3
18 20 20 25 29 33 29 29 33 19 19 28 22 19 22 21 22 19 18 17 14 13 14 13 13 12 10 10 10 9 9 9 10 9 7 5 5 6 5 5 5 4 4
8 15 19 25 30 19 26 30 27 24 24 21 15 16 20 22 20 18 16 15 15 14 14 13 13 12 11 12 11 11 11 11 11 9 9 8 8 9 10 9 9 8 7
3 8 15 24 30 31 18 21 21 25 21 21 20 19 21 23 18 16 16 16 16 15 15 14 14 12 12 12 12 12 11 10 10 10 8 8 7 6 5 4 3 2 2
7 8 12 19 24 23 20 32 25 26 23 21 26 24 18 15 15 14 16 16 15 15 15 14 14 13 13 13 12 12 10 10 9 8 8 7 6 6 5 5 4 4 4
9 12 11 27 27 22 21 24 26 16 12 10 9 10 13 17 17 17 17 18 17 16 15 14 12 12 12 12 11 10 10 10 10 9 8 8 7 6 6 6 6 7 8
11 13 11 21 25 21 16 21 9 11 13 15 15 12 13 15 16 18 19 19 17 16 15 13 12 12 12 13 13 12 13 13 12 11 10 9 9 9 10 11 12 12 13
4 17 8 8 12 16 15 14 12 15 14 15 15 16 17 18 19 18 17 17 16 15 15 14 14 14 14 15 15 16 16 16 16 14 13 13 12 13 14 15 15 15 15
6 4 6 10 10 12 14 15 16 17 18 18 18 17 16 16 16 16 16 16 17 17 17 17 18 18 18 19 19 19 19 20 20 18 18 19 18 18 18 17 17 16 18
13 14 10 16 15 16 17 17 19 20 20 19 20 19 18 18 18 18 19 19 19 21 21 21 21 21 21 20 19 18 18 20 21 21 21 22 21 21 21 22 24 20 21
15 16 18 18 17 17 18 18 20 21 22 21 21 21 20 21 21 21 21 22 22 24 24 24 24 25 25 23 22 22 21 22 23 23 23 23 24 25 26 25 26 27 28
19 20 21 20 20 20 20 21 22 22 22 22 23 24 23 24 24 24 24 25 25 26 26 27 28 29 30 29 28 27 27 28 29 29 28 28 28 29 28 29 29 28 31
21 21 20 21 21 21 21 21 23 24 25 26 27 26 25 26 27 28 29 29 29 30 30 31 31 32 33 34 34 36 34 36 37 35 34 32 33 34 33 34 33 34 33
24 24 24 25 24 24 24 24 25 26 28 28 29 29 29 30 32 33 33 32 32 32 32 31 31 31 33 33 35 37 38 39 38 38 38 37 37 38 39 39 39 39 39
30 29 30 29 30 29 29 29 30 30 32 31 33 34 34 35 36 37 35 35 35 33 32 33 33 34 35 35 36 37 39 39 39 41 42 42 42 42 43 43 44 44 45
33 31 31 31 31 32 32 32 32 33 36 36 38 39 39 39 40 40 39 40 42 40 39 39 40 40 40 42 41 42 44 43 44 46 47 47 47 47 47 47 48 49 49
39 37 36 35 35 35 35 34 34 35 38 40 42 42 43 44 44 44 45 46 46 44 45 45 43 42 43 44 43 45 46 46 47 48 49 50 49 50 49 50 51 52 52
44 43 42 43 41 41 41 40 40 40 41 43 44 44 45 46 48 49 50 50 49 48 48 47 47 46 47 47 47 48 48 49 50 51 51 50 50 51 52 54 55 55 56
49 50 49 48 48 47 46 46 48 48 46 45 45 46 47 50 51 51 52 52 51 52 52 51 51 50 50 50 50 51 51 52 52 51 51 51 52 54 56 57 59 60 60
54 54 55 56 56 55 55 54 53 53 52 50 49 50 50 51 52 53 54 53 53 54 55 55 54 54 53 53 53 54 54 54 54 53 53 54 54 56 58 60 62 62 63
53 58 60 61 63 62 61 61 59 57 56 55 55 52 51 52 53 54 54 55 56 57 57 57 57 56 55 55 56 56 57 57 56 54 55 56 57 59 61 64 64 64 64
48 51 55 59 62 64 65 64 63 61 60 59 58 57 56 56 56 56 56 57 57 58 59 58 58 57 57 57 58 59 59 59 59 59 57 58 60 62 63 63 64 65 66
51 51 52 56 61 66 67 66 65 64 64 62 61 61 61 60 59 58 57 58 58 59 58 58 58 59 59 59 60 60 60 60 61 63 65 64 63 63 64 64 66 66 67
Wind_Direction
255 247 244 241 236 230 236 240 241 241 257 257 249 241 241 235 221 215 204 209 213 211 205 201 195 192 193 239 264 231 184 176 180 177 176 164 177 169 146 143 163 169 179
256 235 237 231 227 225 233 238 239 234 236 251 245 252 257 243 219 199 203 207 211 206 205 207 209 214 216 230 241 221 187 165 184 176 165 164 165 172 155 145 139 141 137
250 227 222 221 220 226 227 228 235 221 241 246 246 245 223 214 200 207 197 204 206 205 208 214 217 219 225 232 221 204 179 183 177 171 177 178 180 168 169 162 143 135 132
236 225 210 218 218 222 225 212 231 223 227 229 234 207 204 210 207 194 194 206 206 205 212 219 226 228 227 223 219 213 211 199 198 195 190 176 165 159 151 127 110 115 123
235 227 217 219 208 185 181 159 181 197 241 220 185 195 200 200 192 189 192 201 206 213 216 219 224 223 222 229 229 226 220 216 212 206 212 199 185 171 175 179 176 173 170
237 246 228 213 224 207 187 211 194 211 217 195 200 216 202 191 186 185 196 205 212 217 222 223 225 223 222 225 222 220 216 216 217 217 214 207 203 206 203 199 197 196 198
178 233 212 211 229 223 222 219 206 186 196 198 192 204 200 184 180 190 201 210 212 218 221 223 229 230 231 230 227 224 218 214 207 203 197 195 199 207 199 208 201 199 208
281 262 220 213 196 216 224 230 201 200 184 188 187 183 182 183 194 199 211 217 223 226 228 227 227 224 224 221 216 208 201 199 202 204 194 193 200 204 207 212 215 219 233
255 266 252 201 192 203 203 216 230 186 184 195 185 165 186 208 204 212 221 224 221 224 224 220 218 213 211 212 213 221 226 228 229 228 221 207 198 205 220 231 243 254 256
225 223 233 247 211 211 211 214 168 213 210 211 204 195 206 218 227 216 218 222 220 218 218 217 218 221 220 225 229 234 239 237 226 219 214 211 226 237 245 248 249 249 250
340 232 215 217 203 224 218 195 217 221 226 218 217 208 213 214 219 221 217 218 218 222 226 229 231 234 236 236 239 238 232 222 223 227 231 240 253 262 261 266 268 266 260
258 281 239 232 212 215 219 230 228 224 222 225 227 224 216 217 214 218 220 225 227 232 235 239 242 243 246 245 240 238 233 226 228 238 247 256 264 271 274 276 271 262 250
252 238 234 241 235 226 225 227 233 235 231 224 223 218 213 214 219 223 227 231 236 241 243 247 250 253 253 250 246 243 243 243 247 251 258 267 274 275 275 272 268 264 245
247 249 245 238 240 236 233 229 229 230 226 220 218 217 220 223 225 232 236 241 243 244 247 251 253 253 252 246 247 248 254 259 260 262 264 267 272 274 275 278 274 265 255
249 243 241 244 238 237 237 237 232 228 224 223 227 226 225 229 235 240 243 246 247 249 250 253 255 255 255 250 250 253 257 266 269 271 270 270 270 272 273 274 275 276 273
253 252 249 246 245 240 237 233 230 229 230 232 234 236 237 240 243 245 247 249 251 254 255 255 257 259 258 255 255 258 260 264 270 273 273 272 272 272 273 273 273 274 275
251 247 248 245 242 242 242 242 239 236 235 236 238 240 242 246 249 250 252 253 254 254 254 256 257 259 258 257 256 258 260 262 266 270 272 273 273 274 275 274 273 272 271
258 251 247 244 244 243 242 241 243 244 245 244 245 245 244 246 249 251 253 256 258 259 260 260 261 262 262 262 260 262 263 265 267 269 270 272 273 273 272 273 273 271 270
269 267 262 258 254 251 250 248 248 249 249 250 250 249 250 250 251 254 256 258 255 255 257 259 259 260 261 261 262 265 266 269 271 272 273 273 274 274 273 272 271 270 269
266 268 267 266 265 262 259 256 254 254 255 254 253 252 253 253 254 254 254 255 255 256 258 258 260 261 262 263 264 265 267 269 271 273 273 273 273 273 273 272 271 270 270
259 260 262 263 263 263 263 263 260 257 255 256 257 258 258 257 255 253 253 254 255 256 257 259 261 263 264 265 265 266 267 270 270 271 271 272 274 274 273 272 271 271 271
256 255 255 257 259 259 259 260 259 258 259 260 261 259 256 255 255 254 254 254 254 256 258 259 261 263 263 263 264 266 267 268 269 270 271 271 271 272 272 272 272 272 272
258 256 254 255 255 255 256 258 259 261 261 260 258 257 258 258 257 257 257 257 257 257 258 259 261 262 263 263 264 265 266 267 268 269 270 272 274 276 278 279 279 278 277
259 260 259 255 255 254 254 255 257 259 260 261 261 261 261 260 259 259 258 258 258 259 260 262 262 263 263 263 265 266 267 267 267 267 271 274 277 280 282 282 282 282 281
257 258 260 260 260 259 259 258 257 257 258 260 262 262 262 261 260 259 260 259 259 259 261 262 263 263 263 264 266 268 268 268 268 269 269 273 277 279 282 281 282 283 283
264 261 258 259 260 258 256 256 256 256 256 257 259 260 261 262 262 261 260 260 259 260 261 262 262 262 263 265 267 268 268 269 271 271 272 276 277 279 281 283 284 285 285